This is the latest recevied weather packets stored in our database for station/object M0JUI-1. If no packets are shown the sender has not sent any weather packets the latest 10 day(s).
| Time | Temp. | Humidity | Pressure | Rain* | Wind** | Luminosity | Snow |
|---|---|---|---|---|---|---|---|
| 1777471599 | 16.67° C | 54% | 1026.2 hPa | 0 mm | - | 573 W/m² | - |
| 1777471286 | 16.67° C | 54% | 1026.3 hPa | 0 mm | - | 580 W/m² | - |
| 1777470986 | 16.67° C | 55% | 1026.2 hPa | 0 mm | - | 586 W/m² | - |
| 1777470687 | 16.67° C | 55% | 1026.2 hPa | 0 mm | - | 591 W/m² | - |
| 1777470386 | 16.67° C | 54% | 1026.5 hPa | 0 mm | - | 572 W/m² | - |
| 1777470086 | 16.11° C | 54% | 1026.7 hPa | 0 mm | - | 563 W/m² | - |
| 1777469787 | 16.67° C | 54% | 1026.7 hPa | 0 mm | - | 605 W/m² | - |
| 1777469486 | 16.67° C | 54% | 1026.5 hPa | 0 mm | - | 619 W/m² | - |
| 1777469186 | 16.67° C | 53% | 1026.6 hPa | 0 mm | - | 620 W/m² | - |
| 1777468886 | 17.22° C | 54% | 1026.3 hPa | 0 mm | - | 619 W/m² | - |
| 1777468586 | 16.67° C | 53% | 1026.6 hPa | 0 mm | - | 621 W/m² | - |
| 1777468286 | 17.22° C | 55% | 1026.5 hPa | 0 mm | - | 599 W/m² | - |
| 1777467986 | 16.67° C | 55% | 1026.6 hPa | 0 mm | - | 633 W/m² | - |
| 1777467686 | 16.11° C | 54% | 1026.5 hPa | 0 mm | - | 645 W/m² | - |
| 1777467386 | 16.67° C | 55% | 1026.4 hPa | 0 mm | - | 646 W/m² | - |
| 1777467086 | 16.67° C | 56% | 1026.6 hPa | 0 mm | - | 646 W/m² | - |
| 1777466774 | 16.11° C | 56% | 1026.6 hPa | 0 mm | - | 642 W/m² | - |
| 1777466474 | 16.11° C | 57% | 1026.5 hPa | 0 mm | - | 643 W/m² | - |
| 1777466172 | 16.11° C | 57% | 1026.6 hPa | 0 mm | - | 638 W/m² | - |
| 1777465872 | 16.11° C | 59% | 1026.6 hPa | 0 mm | - | 654 W/m² | - |
| 1777465572 | 16.67° C | 58% | 1026.4 hPa | 0 mm | - | 653 W/m² | - |
| 1777465272 | 16.67° C | 60% | 1026.5 hPa | 0 mm | - | 640 W/m² | - |
| 1777464972 | 16.67° C | 59% | 1026.5 hPa | 0 mm | - | 632 W/m² | - |
| 1777464672 | 16.67° C | 58% | 1026.2 hPa | 0 mm | - | 613 W/m² | - |
| 1777464372 | 16.11° C | 57% | 1026.4 hPa | 0 mm | - | 615 W/m² | - |
* Rain latest hour (hover to see other rain measurements)
** Current wind speed in m/s (hover to see current wind gust speed)